Notices

What's New in latest Release from April 7th, 2021:

- Updated Glossary, including Speed of Maximum Gust, and Total Hourly Precipitation

- Updated national and regional climate services offices contacts and prices information

- Addition of station inventory lists for 1981-2010, 1971-2000, and 1961-1990 Normals.

If you haven't already, please take our survey and provide feedback about our website: https://eccc.sondage-survey.ca/f/LanguageSelection.aspx?s=442ca660-fcf1-47c0-95a9-59707d6fd709

Hourly Data Report for March 13, 2021

NANAIMO A
BRITISH COLUMBIA
Current Station Operator: NAVCAN

49°03'16.000" N
123°52'12.000" W
28.00 m
1025365
YCD

Download Data

Hourly Data (March 2021)
Hourly Data Report for March 13, 2021
TIME
LST
Temp Definition
°C
Dew Point Definition
°C
Rel Hum Definition
%
Precip. Amount Definition
mm

Wind Dir Definition
10's deg

Wind Spd Definition
km/h
Visibility Definition
km
Stn Press Definition
kPa
Hmdx Definition


Wind Chill Definition


Weather Definition


00:00 4.9 3.2 88 LegendMM 20 4 LegendMM 102.15     LegendNANA
01:00 4.9 2.8 87 LegendMM 10 1 LegendMM 102.14     LegendNANA
02:00 4.2 2.5 88 LegendMM 24 5 LegendMM 102.12     LegendNANA
03:00 2.5 2.0 96 LegendMM 25 5 LegendMM 102.04     LegendNANA
04:00 1.8 1.2 96 LegendMM 16 2 LegendMM 101.99     LegendNANA
05:00 0.9 0.4 97 LegendMM 20 4 LegendMM 101.98     LegendNANA
06:00 0.2 -0.4 95 LegendMM 18 4 LegendMM 101.94     LegendNANA
07:00 -0.3 -1.0 95 LegendMM 22 3 LegendMM 101.95   -1 LegendNANA
08:00 2.0 -0.1 86 LegendMM 19 2 LegendMM 101.94     LegendNANA
09:00 5.9 1.5 73 LegendMM 7 2 LegendMM 101.95     LegendNANA
10:00 7.3 1.9 68 LegendMM 17 9 LegendMM 101.92     LegendNANA
11:00 10.0 2.4 59 LegendMM 15 8 LegendMM 101.89     LegendNANA
12:00 11.1 2.6 56 LegendMM 9 13 LegendMM 101.84     LegendNANA
13:00 11.6 2.8 55 LegendMM 9 12 LegendMM 101.78     LegendNANA
14:00 12.5 2.2 49 LegendMM 11 12 LegendMM 101.69     LegendNANA
15:00 11.6 2.0 52 LegendMM 13 18 LegendMM 101.62     LegendNANA
16:00 11.3 1.9 52 LegendMM 8 14 LegendMM 101.57     LegendNANA
17:00 10.2 2.2 57 LegendMM 8 10 LegendMM 101.49     LegendNANA
18:00 9.4 2.7 63 LegendMM 23 2 LegendMM 101.44     LegendNANA
19:00 7.4 3.2 75 LegendMM 0 1 LegendMM 101.37     LegendNANA
20:00 6.1 3.3 83 LegendMM 32 2 LegendMM 101.31     LegendNANA
21:00 5.7 3.4 85 LegendMM 4 2 LegendMM 101.25     LegendNANA
22:00 5.2 3.5 89 LegendMM 25 3 LegendMM 101.20     LegendNANA
23:00 4.9 3.4 90 LegendMM 25 5 LegendMM 101.13     LegendNANA

Notes on Data Quality.

Legend

  • E = Estimated
  • M = Missing
  • NA = Not Available*
  • [empty] = Indicates an unobserved value
Date modified: